Regional Weather Roundup
Issued by NWS Upton, NY

Current Version | Previous Version | Text Only | Print | Product List | Glossary Off
Versions: 1 2 3 4 5 6 7 8 9 10 11 12 13 14 15 16 17 18 19 20 21 22 23 24 25 26 27 28 29 30 31 32 33 34 35 36 37 38 39 40 41 42 43 44 45 46 47 48

000
ASUS41 KOKX 060208
RWROKX

REGIONAL WEATHER ROUNDUP
NATIONAL WEATHER SERVICE NEW YORK NY
1000 PM EDT TUE MAY 05 2015

NOTE: "FAIR" INDICATES FEW OR NO CLOUDS BELOW 12,000 FEET WITH NO
SIGNIFICANT WEATHER AND/OR OBSTRUCTIONS TO VISIBILITY.

NYZ071-072-176-178-NJZ106-104-060300-
NEW YORK CITY METRO AREA


CITY           SKY/WX    TMP DP  RH WIND       PRES   REMARKS
CENTRAL PARK   PTCLDY    70  52  52 CALM      30.21
LAGUARDIA APRT MOCLDY    69  52  54 S6        30.17R
KENNEDY INTL   MOCLDY    59  52  77 S5        30.19R
NEWARK/LIBERTY MOCLDY    72  54  53 CALM      30.18R
BRNX BOT. GARD   N/A     66  52  59 E2        30.18F
TETERBORO      CLEAR     69  53  56 SW5       30.17R
$$

NYZ177-179-078>081-060300-
LONG ISLAND NEW YORK

CITY           SKY/WX    TMP DP  RH WIND       PRES   REMARKS
FARMINGDALE    MOCLDY    64  53  67 S6        30.19R
ISLIP          MOCLDY    64  53  67 SW6       30.17S
SHIRLEY        MOCLDY    63  52  67 S3        30.20R
WESTHAMPTON    MOCLDY    60  50  69 SW6       30.21R
MONTAUK POINT    N/A     56  50  80 E3        30.22R
$$

NYZ052-065-067-060300-
HUDSON VALLEY

CITY           SKY/WX    TMP DP  RH WIND       PRES   REMARKS
WHITE PLAINS   MOCLDY    66  51  58 CALM      30.18S
NEWBURGH       NOT AVBL
MONTGOMERY     MOCLDY    68  45  43 NE9       30.20R
POUGHKEEPSIE   PTCLDY    71  41  33 N3        30.19R
ALBANY         CLOUDY    66  36  32 NW7       30.21R
$$

NJZ001-105-106-008-010-013-015-019>022-104-060300-
NEW JERSEY

CITY           SKY/WX    TMP DP  RH WIND       PRES   REMARKS
NEWARK/LIBERTY MOCLDY    72  54  53 CALM      30.18R
TETERBORO      CLEAR     69  53  56 SW5       30.17R
CALDWELL       CLEAR     68  56  65 CALM      30.19R
MORRISTOWN     MOCLDY    72  54  53 NW7       30.18R
SOMERVILLE     CLOUDY    69  58  67 CALM      30.17R
SUSSEX         MOCLDY    66  50  56 CALM      30.21R
ANDOVER          N/A     65  57  75 CALM      30.21R
TRENTON        CLOUDY    73  56  54 NW3       30.19R
MILLVILLE      CLOUDY    70  58  65 SW5       30.21R
ATLANTIC CITY  MOCLDY    68  56  65 S6        30.21R
WRIGHTSTOWN    PTCLDY    68  62  81 W2        30.17R
TOMS RIVER     CLOUDY    66  63  88 CALM      30.20S
BELMAR         CLOUDY    72  55  56 W5        30.20R
$$

PAZ047>061-062-071-060300-
EASTERN PENNSYLVANIA

CITY           SKY/WX    TMP DP  RH WIND       PRES   REMARKS
PHILADELPHIA   MOCLDY    78  56  46 W6        30.20R
ALLENTOWN      CLOUDY    71  54  54 CALM      30.20R
SCRANTON       CLOUDY    72  49  44 N5        30.23R
$$

CTZ002-004>006-009-010-012-RIZ004-006-007-MAZ004-011-015-060300-
SOUTHERN NEW ENGLAND
 IN CT

CITY           SKY/WX    TMP DP  RH WIND       PRES   REMARKS
BRADLEY INTL   PTCLDY    68  33  27 N6        30.20R
HARTFORD       PTCLDY    68  52  56 MISG      30.19R
DANBURY        PTCLDY    69  50  50 NW5       30.20R
WTRBRY/OXFORD    N/A     70  52  52 CALM      30.22R
BRIDGEPORT     MOCLDY    65  52  62 SW5       30.18R
MERIDEN        PTCLDY    67  52  58 SE3       30.19R
NEW HAVEN      PTCLDY    61  51  70 CALM      30.19R
CHESTER        FAIR      64  52  63 CALM      30.21R
GROTON         MOCLDY    60  50  69 E3        30.21R
WILLIMANTIC    MOCLDY    66  51  58 CALM      30.21R

 IN RI

CITY           SKY/WX    TMP DP  RH WIND       PRES   REMARKS
PROVIDENCE     MOCLDY    58  50  75 SE5       30.22R
BLOCK ISLAND   MOCLDY    55  46  71 SW7       30.21R
WESTERLY       MOCLDY    59  50  72 CALM      30.22R

 IN MA

CITY           SKY/WX    TMP DP  RH WIND       PRES   REMARKS
BOSTON         PTCLDY    56  51  84 S5        30.22R
WORCESTER      PTCLDY    62  46  55 CALM      30.22R
WESTFIELD      PTCLDY    61  39  44 CALM      30.20R
PROVINCETOWN   MOCLDY    57  48  72 S7        30.23R
NANTUCKET      PTCLDY    50  45  83 CALM      30.22R
$$

ANZ330-335-338-340-345-350-353-355-060300-
COASTAL MARINE OBSERVATIONS


STATION/POSITION TIME  SKY/WX   TEMP    WIND        PRES    VSBY  WAVE
                                AIR SEA DIR/SP/G                  HT/PER
                 (UTC)          (F)     (DEG/KT/KT) (MB)    (MI)  (FT/S)
NY HARB ENTRANCE 0150            54 51  190/  6/  6 1021.7          3/ 7
4S FIRE IS       0103               52                N/A           3/ 5
20S FIRE ISLAND  0150            53 50  190/ 12/ 12 1022.2          3/ 6
GREAT SOUTH BAY  0115            60 61  270/  8/ 10   N/A
23SW MTP         0150            51 49  210/  8/  8 1022.4          3/ 6
HUDSON CANYON    NOT AVBL
KINGS POINT      0100            65 56  200/  9/ 10 1021.0
EASTERN LI SOUND 0100            51      50/  4/  6   N/A
ROBBINS REEF     0100            68     150/  7/  8 1020.3
$$


>>>>>>>>>>>>>>>>>>>>>>>>>>>> KEY <<<<<<<<<<<<<<<<<<<<<<<<<<<
>                                                          <
>     SKY/WX - SKY CONDITION/PRESENT WEATHER               <
>     TMP    - TEMPERATURE IN FAHRENHEIT                   <
>     DP     - DEWPOINT IN FAHRENHEIT                      <
>     RH     - RELATIVE HUMIDITY IN PERCENT                <
>     WIND   - DIRECTION AND SPEED IN MPH                  <
>     PRES   - MEAN SEA LEVEL PRESSURE IN INCHES OF HG     <
>     WCI    - WIND CHILL INDEX                            <
>     VSB    - VISIBILITY IN MILES                         <
>     HX     - HEAT INDEX                                  <
>     TC     - TEMPERATURE IN CELSIUS                      <
>     VRB    - VARIABLE WIND DIRECTION                     <
>                                                          <
>>>>>>>>>>>>>>>>>>>>>>>>>>>> KEY <<<<<<<<<<<<<<<<<<<<<<<<<<<




USA.gov is the U.S. government's official web portal to all federal, state and local government web resources and services.